This demonstration page uses our WeatherBlox Daily Observations layout. Learn more.

Hourly Observations for June 14, 2019

Temp ( °F °C ) Dew Point ( °F °C ) Humidity (%) Winds ( mph kmh ) Pressure ( in mb ) Visibility ( mi km ) Precip ( " mm )
12:15 am 00:15 Clear 61 16 50 10 68 68 SW 5 7 29.88 1012 10 16.09344 0 0
12:35 am 00:35 Clear 61 16 50 10 68 68 SSW 5 7 29.88 1012 10 16.09344 0 0
12:55 am 00:55 Clear 59 15 50 10 72 72 SSW 3 6 29.88 1012 10 16.09344 0 0
1:15 am 01:15 Clear 63 17 46 8 56 56 W 10 17 29.88 1012 10 16.09344 0 0
1:35 am 01:35 Clear 61 16 46 8 59 59 W 12 19 29.91 1013 10 16.09344 0 0
1:55 am 01:55 Clear 61 16 46 8 59 59 W 6 9 29.91 1013 10 16.09344 0 0
2:15 am 02:15 Clear 61 16 46 8 59 59 WSW 7 11 29.91 1013 10 16.09344 0 0
2:35 am 02:35 Clear 61 16 46 8 59 59 W 9 15 29.91 1013 10 16.09344 0 0
2:55 am 02:55 Mostly Cloudy 61 16 46 8 59 59 WSW 9 15 29.88 1012 10 16.09344 0 0
3:15 am 03:15 Cloudy 61 16 46 8 59 59 WSW 7 11 29.91 1013 10 16.09344 0 0
3:35 am 03:35 Partly Cloudy 61 16 46 8 59 59 W 5 7 29.91 1013 10 16.09344 0 0
3:55 am 03:55 Partly Cloudy 61 16 46 8 59 59 W 6 9 29.91 1013 10 16.09344 0 0
4:15 am 04:15 Partly Cloudy 61 16 46 8 59 59 WSW 7 11 29.91 1013 10 16.09344 0 0
4:35 am 04:35 Partly Cloudy 59 15 46 8 63 63 W 7 11 29.91 1013 10 16.09344 0 0
4:55 am 04:55 Partly Cloudy 59 15 48 9 68 68 W 16 26 29.91 1013 10 16.09344 0 0
5:15 am 05:15 Clear 59 15 48 9 68 68 W 8 13 29.94 1014 10 16.09344 0 0
5:35 am 05:35 Clear 59 15 48 9 68 68 W 13 20 29.94 1014 10 16.09344 0 0
5:55 am 05:55 Sunny 59 15 50 10 72 72 W 12 19 29.94 1014 10 16.09344 0 0
6:15 am 06:15 Sunny 59 15 50 10 72 72 W 12 19 29.97 1015 10 16.09344 0 0
6:35 am 06:35 Sunny 59 15 50 10 72 72 W 9 15 29.97 1015 10 16.09344 0 0
6:55 am 06:55 Partly Cloudy 61 16 50 10 68 68 W 7 11 30 1016 10 16.09344 0 0
7:15 am 07:15 Cloudy 61 16 50 10 68 68 W 6 9 30 1016 10 16.09344 0 0
7:35 am 07:35 Mostly Cloudy 61 16 52 11 72 72 WSW 6 9 30 1016 10 16.09344 0 0
7:55 am 07:55 Partly Cloudy 61 16 52 11 72 72 WNW 14 22 30.03 1017 10 16.09344 0 0
8:15 am 08:15 Partly Cloudy 63 17 52 11 68 68 NW 20 31 30.03 1017 10 16.09344 0 0
8:35 am 08:35 Partly Cloudy 63 17 52 11 68 68 WNW 17 28 30.03 1017 10 16.09344 0 0
8:55 am 08:55 Partly Cloudy 63 17 52 11 68 68 WNW 18 30 30.06 1018 10 16.09344 0 0
9:15 am 09:15 Partly Cloudy 63 17 50 10 64 64 WNW 21 33 30.06 1018 10 16.09344 0 0
9:35 am 09:35 Sunny 63 17 52 11 68 68 WNW 15 24 30.06 1018 10 16.09344 0 0
9:55 am 09:55 Partly Cloudy 64 18 52 11 64 64 WNW 18 30 30.09 1019 10 16.09344 0 0
10:15 am 10:15 Partly Cloudy 64 18 52 11 64 64 WNW 18 30 30.09 1019 10 16.09344 0 0
10:35 am 10:35 Partly Cloudy 64 18 52 11 64 64 WNW 18 30 30.09 1019 10 16.09344 0 0
10:55 am 10:55 Partly Cloudy 66 19 52 11 60 60 WNW 18 30 30.09 1019 10 16.09344 0 0
11:15 am 11:15 Partly Cloudy 68 20 50 10 53 53 NW 26 43 30.09 1019 10 16.09344 0 0
11:35 am 11:35 Partly Cloudy 68 20 50 10 53 53 NW 22 35 30.09 1019 10 16.09344 0 0
11:55 am 11:55 Sunny 70 21 52 11 53 53 WNW 20 31 30.12 1020 10 16.09344 0 0
12:15 pm 12:15 Partly Cloudy 70 21 50 10 50 50 NW 16 26 30.12 1020 10 16.09344 0 0
12:35 pm 12:35 Partly Cloudy 70 21 50 10 50 50 NW 20 31 30.12 1020 10 16.09344 0 0
12:55 pm 12:55 Partly Cloudy 70 21 50 10 50 50 NW 17 28 30.12 1020 10 16.09344 0 0
1:15 pm 13:15 Partly Cloudy 72 22 50 10 47 47 WNW 18 30 30.09 1019 10 16.09344 0 0
1:35 pm 13:35 Sunny 72 22 50 10 47 47 NW 23 37 30.09 1019 10 16.09344 0 0
1:55 pm 13:55 Sunny 73 23 50 10 44 44 WNW 25 41 30.09 1019 10 16.09344 0 0
2:15 pm 14:15 Sunny 73 23 48 9 41 41 WNW 20 31 30.09 1019 10 16.09344 0 0
2:35 pm 14:35 Sunny 73 23 50 10 44 44 WNW 24 39 30.09 1019 10 16.09344 0 0
2:55 pm 14:55 Sunny 73 23 50 10 44 44 NW 20 31 30.09 1019 10 16.09344 0 0
3:15 pm 15:15 Sunny 75 24 50 10 41 41 WNW 23 37 30.09 1019 10 16.09344 0 0
3:35 pm 15:35 Sunny 75 24 48 9 39 39 WNW 22 35 30.09 1019 10 16.09344 0 0
3:55 pm 15:55 Sunny 75 24 50 10 41 41 WNW 17 28 30.09 1019 10 16.09344 0 0
4:15 pm 16:15 Sunny 77 25 48 9 36 36 NW 16 26 30.09 1019 10 16.09344 0 0
4:35 pm 16:35 Sunny 77 25 50 10 39 39 NW 15 24 30.09 1019 10 16.09344 0 0
4:55 pm 16:55 Sunny 77 25 50 10 39 39 NW 14 22 30.09 1019 10 16.09344 0 0
5:15 pm 17:15 Mostly Cloudy 77 25 50 10 39 39 W 14 22 30.09 1019 10 16.09344 0 0
5:35 pm 17:35 Partly Cloudy 77 25 50 10 39 39 NW 16 26 30.09 1019 10 16.09344 0 0
5:55 pm 17:55 Sunny 77 25 48 9 36 36 WNW 15 24 30.09 1019 10 16.09344 0 0
6:15 pm 18:15 Sunny 77 25 50 10 39 39 NW 15 24 30.09 1019 10 16.09344 0 0
6:35 pm 18:35 Sunny 75 24 48 9 39 39 NW 13 20 30.09 1019 10 16.09344 0 0
6:55 pm 18:55 Sunny 75 24 50 10 41 41 NW 13 20 30.09 1019 10 16.09344 0 0
7:15 pm 19:15 Sunny 73 23 48 9 41 41 WNW 6 9 30.09 1019 10 16.09344 0 0
7:35 pm 19:35 Sunny 73 23 50 10 44 44 WNW 6 9 30.09 1019 10 16.09344 0 0
7:55 pm 19:55 Sunny 73 23 50 10 44 44 WNW 3 6 30.09 1019 10 16.09344 0 0
8:15 pm 20:15 Sunny 72 22 52 11 50 50 W 6 9 30.09 1019 10 16.09344 0 0
8:35 pm 20:35 Sunny 70 21 52 11 53 53 SSE 3 6 30.09 1019 10 16.09344 0 0
8:55 pm 20:55 Clear 68 20 52 11 56 56 W 6 9 30.12 1020 10 16.09344 0 0
9:15 pm 21:15 Clear 68 20 52 11 56 56 Calm 30.12 1020 10 16.09344 0 0
9:35 pm 21:35 Clear 63 17 54 12 73 73 Calm 30.12 1020 10 16.09344 0 0
9:55 pm 21:55 Clear 64 18 54 12 68 68 Calm 30.12 1020 10 16.09344 0 0
10:15 pm 22:15 Clear 63 17 54 12 73 73 Calm 30.15 1021 10 16.09344 0 0
10:55 pm 22:55 Clear 61 16 54 12 77 77 Calm 30.15 1021 10 16.09344 0 0
11:15 pm 23:15 Clear 59 15 55 13 88 88 Calm 30.15 1021 10 16.09344 0 0
11:35 pm 23:35 Clear 59 15 55 13 88 88 Calm 30.15 1021 10 16.09344 0 0
11:55 pm 23:55 Clear 59 15 54 12 82 82 SSW 3 6 30.15 1021 10 16.09344 0 0

Powered by AerisWeather